Location: 10024 Water Well
(34.2598°N, 106.6411°W)
Time: 22:27:04
(UTC+00:00)

Daily predictions for brighter satellites

Satellite Brightness Start Highest point End
(mag) Time Altitude Azimuth Time Altitude Azimuth Time Altitude Azimuth
ASTEX 1 4.4 12:02:03 10° NNE 12:06:46 45° E 12:11:28 10° SSE
Cosmos 1707 Rocket 3.6 12:11:02 62° NNE 12:11:40 76° E 12:15:58 10° S
ARIANE 5 R/B 4.3 12:07:59 10° NE 12:12:30 32° E 12:16:57 10° SSE
Okean 3 3.5 12:15:24 64° S 12:15:24 64° S 12:18:54 10° S
ATLAS 3B R/B 4.2 12:20:33 21° NNW 12:20:33 21° NNW 12:25:01 10° N
Thor Agena Rocket 3.9 12:15:00 10° N 12:25:09 10° SSW 12:19:01 46° NW
Okean 2 3.2 12:20:27 77° N 12:20:43 86° E 12:24:39 10° S
CENTAUR R/B 4.2 12:13:23 10° NNW 12:21:39 48° NE 12:30:36 10° SE
Cosmos 2082 4.4 12:25:26 34° NW 12:25:26 34° NW 12:29:24 10° N
Cosmos 1470 Rocket 3.5 12:23:04 10° S 12:27:31 89° E 12:31:58 10° N
Cosmos 1862 Rocket 3.4 12:27:51 36° NNW 12:29:35 73° W 12:33:59 10° S
Cosmos 1072 Rocket 4.4 12:24:36 10° S 12:31:00 77° W 12:37:26 10° N
SKYMED 2 3.4 12:27:25 10° SSE 12:31:45 87° W 12:34:46 20° NNW
Gbstr 26 Del rocket 4.3 12:27:44 22° WSW 12:33:12 72° NW 12:40:28 10° NE
Cosmos 1513 Rocket 4.4 12:29:24 10° SSW 12:35:18 54° W 12:41:14 10° N
Cosmos 2285 Rocket 4.1 12:29:49 10° SSW 12:36:11 83° ESE 12:42:38 10° NNE
Cosmos 304 Rocket 3.6 12:37:07 10° SSW 12:41:50 69° WNW 12:46:35 10° NNE
Cosmos 1933 Rocket 4.1 12:37:49 10° S 12:42:02 57° E 12:46:18 10° NNE
NOAA 12 4.1 12:37:00 10° N 12:42:07 56° WNW 12:47:13 10° SSW
Cosmos 1825 4.2 12:40:33 10° NNE 12:42:56 21° ENE 12:45:19 10° SE
Cosmos 1943 3.7 12:40:31 10° NNW 12:46:04 59° ENE 12:51:35 10° SSE
Cosmos 1464 Rocket 4.0 12:40:27 10° SSW 12:46:38 62° W 12:52:56 10° N
IRS-1C 4.3 12:42:29 10° NNE 12:47:49 77° ESE 12:53:08 10° S
Cosmos 1300 2.3 12:46:32 10° SSW 12:49:47 53° W 12:53:03 10° N
Cosmos 2034 Rocket 3.9 12:46:32 10° S 12:52:47 85° W 12:59:01 10° N
Cosmos 2263 Rocket 3.9 12:55:45 14° NNW 12:55:45 14° NNW 12:57:20 10° NNW
Cosmos 1703 Rocket 3.9 12:53:56 10° N 12:58:18 67° E 13:02:34 10° SSE
Cosmos 2228 Rocket 3.9 12:58:03 24° WNW 12:59:27 29° W 13:03:18 10° SSW
SL-16 R/B 3.1 12:59:27 22° WNW 13:01:44 28° WSW 13:06:29 10° SSW
ADEOS Rocket 3.1 12:58:00 10° N 13:04:02 62° WNW 13:10:46 10° SSW
Cosmos 1892 3.7 13:03:10 10° N 13:06:18 40° E 13:09:25 10° SSE
Cosmos 1814 Rocket 4.0 13:03:04 10° NNW 13:08:18 62° WSW 13:13:27 10° S
SMAP 3.6 13:09:15 10° NNE 13:13:52 63° E 13:18:28 10° S
Okean 1-7 3.5 13:11:56 10° NNW 13:15:44 34° W 13:19:29 10° SSW
Cosmos 1703 3.3 13:16:25 10° NNW 13:19:48 44° W 13:23:11 10° SSW
COSMO-SKYMED 1 3.7 13:16:33 10° SSW 13:19:58 23° W 13:23:25 10° NW
Cosmos 1844 Rocket 2.9 13:17:42 10° SW 13:23:07 48° WNW 13:28:31 10° N
USA 290 2.1 13:20:15 10° SSW 13:23:21 62° WNW 13:26:30 10° N
Cosmos 371 Rocket 4.4 13:20:18 10° WSW 13:24:06 23° WNW 13:27:57 10° NNW
CZ-2D R/B 3.2 13:22:16 10° N 13:26:16 80° WNW 13:30:10 10° SSW
Cosmos 1603 4.0 13:21:23 10° NNW 13:27:09 75° ENE 13:32:52 10° SSE
Meteor 2-12 Rocket 4.4 13:21:07 10° NNW 13:27:15 71° W 13:33:21 10° S
OAO 2 Rocket 3.8 13:23:21 10° WSW 13:28:08 57° SSE 13:32:57 10° E
Cosmos 1455 1.6 13:25:05 10° SSW 13:28:13 71° W 13:31:23 10° N
BREEZE-M DEB (TANK) 4.2 13:22:37 10° NW 13:32:18 82° SW 13:35:37 10° SE
Meteor 1-15 Rocket 4.4 13:26:33 10° SSW 13:32:21 59° W 13:38:12 10° N
Cosmos 1437 Rocket 2.5 13:30:09 10° NNW 13:33:38 56° W 13:37:05 10° S
Cosmos 405 Rocket 3.9 13:31:49 10° WSW 13:34:07 17° WNW 13:36:28 10° NNW
Meteor 1-12 Rocket 4.3 13:28:39 10° S 13:34:20 88° W 13:40:00 10° N
Cosmos 1733 Rocket 4.2 13:30:37 10° SSE 13:34:42 46° E 13:38:50 10° NNE
IGS 5A 3.8 13:31:15 10° NNE 13:35:14 68° E 13:39:13 10° S
Cosmos 1758 4.0 13:32:21 10° SW 13:35:37 29° W 13:38:56 10° NNW
Cosmos 1570 Rocket 4.3 13:30:33 10° NNW 13:35:51 74° ENE 13:41:05 10° SSE
Cosmos 2026 Rocket 4.0 13:31:09 10° N 13:37:21 75° W 13:43:25 10° S
AQUARIUS 4.3 13:33:32 10° NNE 13:37:59 78° ESE 13:42:23 10° S
Cosmos 158 Rocket 3.8 13:33:47 10° NNW 13:38:39 78° WSW 13:43:29 10° S
TRACE 4.1 13:38:11 10° S 13:41:17 73° WSW 13:44:25 10° NNW
Cosmos 2242 Rocket 4.4 13:37:03 10° N 13:41:31 56° E 13:45:55 10° SSE
